Location: Bartshausen
(51.8454°N, 9.8167°E)
Time: 10:51:12
(UTC+00:00)

Iridium 4 Rocket - Pass Details

Date: 15 February 2026
Orbit: 579 x 887 km, 86.9° (Epoch: 8 March)

Event Time Altitude Azimuth Distance (km) Brightness Sun altitude
Rises 20:32:26 0° 347° (NNW) 3,125 7.2 -36.3°
Reaches altitude 10° 20:35:12 10° 333° (NNW) 2,144 6.4 -36.6°
Enters shadow 20:37:21 19° 310° (NW) 1,567 5.7 -36.9°
